Regional Weather Roundup
Issued by NWS

Home | Current Version | Previous Version | Graphics & Text | Print | Product List | Glossary On
Versions: 1 2 3 4 5 6 7 8 9 10 11 12 13 14 15 16 17 18 19 20 21 22 23 24 25 26 27 28 29 30 31 32 33 34 35 36 37 38 39 40 41 42 43 44 45 46 47 48 49 50
000
ASUS43 KBIS 192110
RWRND

NORTH DAKOTA REGIONAL WEATHER ROUNDUP
NATIONAL WEATHER SERVICE BISMARCK ND
400 PM CDT SAT APR 19 2014

NOTE: "FAIR" INDICATES FEW OR NO CLOUDS BELOW 12,000 FEET WITH NO
SIGNIFICANT WEATHER AND/OR OBSTRUCTIONS TO VISIBILITY.


NDZ001>003-009>011-017-192200-
NORTHWEST NORTH DAKOTA

CITY           SKY/WX    TMP DP  RH WIND       PRES   REMARKS
WILLISTON      MOSUNNY   57  34  41 W16G22    29.92F
MINOT          CLOUDY    52  33  48 W21       29.91R
MINOT AFB      CLOUDY    50  35  57 NW20      29.91R
$$

NDZ018>021-031>035-040>046-192200-
SOUTHWEST NORTH DAKOTA

CITY           SKY/WX    TMP DP  RH WIND       PRES   REMARKS
BISMARCK       SUNNY     66  32  28 W21G30    29.93R
DICKINSON      MOSUNNY   61  31  32 W20G25    29.94R
GARRISON         N/A     54  35  48 W23       29.94R
HETTINGER ARPT SUNNY     62  28  27 W17G35    29.97S
$$

NDZ004>008-012>016-024-026-027-054-192200-
NORTHEAST NORTH DAKOTA

CITY           SKY/WX    TMP DP  RH WIND       PRES   REMARKS
GRAND FORKS    MOSUNNY   62  39  42 W20G30    29.85R
GRND FRKS AFB  SUNNY     62  38  40 W21G30    29.87R
DEVILS LAKE    CLOUDY    52  37  58 W25G32    29.88R
$$

NDZ022-023-025-028>030-036>039-047>053-192200-
SOUTHEAST NORTH DAKOTA

CITY           SKY/WX    TMP DP  RH WIND       PRES   REMARKS
FARGO          MOSUNNY   69  31  24 W18       29.90R
JAMESTOWN      SUNNY     66  32  28 W16       29.89R
$$




USA.gov is the U.S. government's official web portal to all federal, state and local government web resources and services.